Location: Ellerstadt
(49.4644°N, 8.2615°E)
Time: 01:38:17
(UTC+00:00)

ISS - Pass Details

Date: 18 May 2021
Orbit: 417 x 422 km, 51.6° (Epoch: 15 June)

Event Time Altitude Azimuth Distance (km) Brightness Sun altitude
Rises 22:28:47 0° 280° (W) 2,369 0.4 -19.7°
Reaches altitude 10° 22:30:55 10° 284° (WNW) 1,505 -0.6 -19.8°
Maximum altitude 22:34:15 59° 5° (N) 494 -3.2 -19.9°
Enters shadow 22:36:14 22° 79° (E) 977 -1.9 -20.0°
